Simultaneous Nadir Overpasses (SNOs) Predictions

Prediction of SNOs between LANDSAT-8 and METOP-B Satellite Orbit:

Table of predicted SNOs for the next 14.0 days since TLE Epoch: 8/17/2024
Index Date (LANDSAT-8) Time (LANDSAT-8) Lat,Lon (LANDSAT-8) SZA (LANDSAT-8 ) Date (METOP-B) Time (METOP-B) Lat,Lon (METOP-B) SZA (METOP-B ) Distance(km) Time Diff (sec)
1 08/19/2024 07:06:13 -81.38, -62.06 108.78 08/19/2024 07:05:35 -81.38, -61.87 108.77 3.11 38
2 08/19/2024 07:55:39 81.39, 105.72 71.26 08/19/2024 07:56:15 81.39, 105.76 71.28 0.86 36
3 08/22/2024 02:40:29 -81.38, 4.45 107.82 08/22/2024 02:40:00 -81.38, 4.30 107.85 2.45 29
4 08/22/2024 03:29:55 81.39, 172.17 72.21 08/22/2024 03:30:39 81.39, 172.31 72.25 2.26 44
5 08/24/2024 22:14:43 -81.39, 71.07 106.82 08/24/2024 22:14:23 -81.38, 71.02 106.84 1.12 20
6 08/24/2024 23:04:09 81.39,-121.24 73.21 08/24/2024 23:05:03 81.39,-121.39 73.21 2.56 54
7 08/27/2024 17:48:56 -81.39, 137.43 105.83 08/27/2024 17:48:46 -81.39, 137.49 105.83 0.91 10
8 08/27/2024 18:38:22 81.39, -54.92 74.19 08/27/2024 18:39:26 81.39, -54.94 74.22 0.47 64
9 08/30/2024 12:33:39 81.39, 36.27 75.19 08/30/2024 12:32:27 81.38, 36.38 75.16 1.87 72
10 08/30/2024 13:23:06 -81.39,-156.08 104.81 08/30/2024 13:23:07 -81.39,-155.89 104.78 3.22 1



Historial Predications of SNOs between LANDSAT-8 and METOP-B
